Flag for U.S.A. Weather past 2 weeks in St. Petersburg, Florida, U.S.A.

Now
65 °F

Overcast.


Feels Like: 65 °F
Forecast: 64 / 76 °F
Wind: 8 mph from Northeast

Location: Whitted Airport

Current Time: Mar 1, 2015 at 6:30:59 AM

Latest Report: Mar 1, 2015 at 5:53 AM


Visibility: 7 mi

Pressure: 30.29 "Hg

Humidity: 94%

Dew point: 63 °F

Location of St. PetersburgLocation

Historic Weather in St. Petersburg — Graph

°F

St. Petersburg temperature yesterday

Maximum temperature yesterday: 66 °F (at 9:53 PM)
Minimum temperature yesterday: 57 °F (at 1:53 AM)
Average temperature yesterday: 62 °F

Past Weeks' High & Low Weather Summary

 TemperatureHumidityPressure
High77 °F (Feb 22, 12:53 PM)100% (Feb 23, 6:53 AM)30.42 "Hg (Feb 23, 6:53 AM)
Low40 °F (Feb 20, 6:53 AM)28% (Feb 20, 2:53 PM)29.69 "Hg (Feb 26, 2:53 AM)
Average60 °F74%30.12 "Hg
* Reported Feb 14 4:53 AM — Mar 1 4:53 AM, St. Petersburg, Weather by CustomWeather, © 2015

Note: Actual official high and low records may vary slightly from our data, if they occured in-between our weather recording intervals... More about our weather records

Advertising

St. Petersburg weather history for previous 24 hours

 ConditionsComfort  
Time TempWeatherWind HumidityBarometerVisibility
4:53 AM
Sun, Mar 1
66 °FOvercast.9 mph93%30.27 "Hg10 mi
3:53 AM65 °FMostly cloudy.10 mph94%30.27 "Hg9 mi
2:53 AM65 °FMostly cloudy.9 mph94%30.27 "Hg9 mi
1:53 AM65 °FPassing clouds.8 mph94%30.29 "Hg10 mi
12:53 AM65 °FPassing clouds.7 mph94%30.30 "Hg10 mi
11:53 PM
Sat, Feb 28
65 °FOvercast.10 mph94%30.32 "Hg10 mi
10:53 PM65 °FMostly cloudy.8 mph94%30.33 "Hg10 mi
9:53 PM66 °FOvercast.10 mph90%30.33 "Hg10 mi
8:53 PM65 °FLight rain. Mostly cloudy.10 mph94%30.32 "Hg10 mi
7:53 PM65 °FOvercast.12 mph94%30.30 "Hg10 mi
6:53 PM65 °FLight rain. Overcast.8 mph94%30.28 "Hg8 mi
5:53 PM65 °FOvercast.13 mph94%30.27 "Hg10 mi
4:53 PM65 °FMostly cloudy.12 mph94%30.25 "Hg10 mi
3:53 PM64 °FLight rain. Mostly cloudy.12 mph97%30.25 "Hg7 mi
2:53 PM64 °FRain. Fog.14 mph97%30.26 "Hg2 mi
1:59 PM64 °FRain. Fog.9 mph94%30.27 "Hg3 mi
1:04 PM64 °FRain. Fog.9 mph94%30.29 "Hg3 mi
12:53 PM64 °FLight rain. Fog.12 mph94%30.29 "Hg4 mi
11:59 AM63 °FHeavy rain. Fog.12 mph93%30.31 "Hg2 mi
10:59 AM62 °FStrong thunderstorms. Fog.8 mph93%30.32 "Hg2 mi
10:03 AM62 °FLight rain. Low clouds.13 mph90%30.31 "Hg8 mi
9:53 AM62 °FOvercast.15 mph90%30.30 "Hg10 mi
8:53 AM62 °FOvercast.12 mph86%30.29 "Hg10 mi
7:53 AM60 °FLight rain. More clouds than sun.13 mph90%30.27 "Hg9 mi
6:53 AM59 °FMostly cloudy.14 mph90%30.25 "Hg10 mi
Weather by CustomWeather, © 2015

See weather overviewHow to use our weather pages